FW2272 Weather Reports


Display with metric or nautical units.
time (UTC)temp
F
wind
direction
speed
MPH
gust
MPH
rain 1hr
in
rain 24hr
in
rain mn
in
humidity
%
barometer
mb
20260502191216 72 118 8.0 0.0 0.00 0.00 0.00 46 1023.4
20260502190713 71 220 6.0 0.0 0.00 0.00 0.00 48 1023.4
20260502190211 71 240 9.0 0.0 0.00 0.00 0.00 48 1023.4
20260502185712 71 281 8.0 0.0 0.00 0.00 0.00 47 1023.4
20260502185214 71 312 9.0 0.0 0.00 0.00 0.00 46 1023.4
20260502184711 71 241 6.0 0.0 0.00 0.00 0.00 50 1023.4
20260502184210 71 298 6.0 0.0 0.00 0.00 0.00 49 1023.4
20260502183714 70 243 9.0 0.0 0.00 0.00 0.00 49 1023.7
20260502183214 71 278 6.0 0.0 0.00 0.00 0.00 51 1023.7
20260502182712 71 72 7.0 0.0 0.00 0.00 0.00 53 1023.7
20260502182210 71 271 8.0 0.0 0.00 0.00 0.00 51 1023.7
20260502181713 70 149 8.0 0.0 0.00 0.00 0.00 51 1023.7
20260502181212 70 260 6.0 0.0 0.00 0.00 0.00 53 1024.0
20260502180713 70 82 8.0 0.0 0.00 0.00 0.00 52 1024.0
20260502180212 70 55 7.0 0.0 0.00 0.00 0.00 51 1024.0
20260502170213 67 298 8.0 0.0 0.00 0.00 0.00 54 1024.7
20260502164214 66 16 11.0 0.0 0.00 0.00 0.00 52 1024.7
20260502163716 66 279 8.0 0.0 0.00 0.00 0.00 53 1024.7
20260502163212 66 274 9.0 0.0 0.00 0.00 0.00 54 1024.7
20260502162712 65 310 10.0 0.0 0.00 0.00 0.00 52 1025.1
20260502162215 65 260 10.0 0.0 0.00 0.00 0.00 53 1024.7
20260502161713 65 113 8.0 0.0 0.00 0.00 0.00 53 1024.7
20260502161212 65 307 7.0 0.0 0.00 0.00 0.00 54 1024.7
20260502160713 64 326 9.0 0.0 0.00 0.00 0.00 55 1024.7
20260502160212 64 358 7.0 0.0 0.00 0.00 0.00 57 1024.7
20260502152214 62 230 7.0 0.0 0.00 0.00 0.00 63 1024.4
20260502151712 62 263 7.0 0.0 0.00 0.00 0.00 65 1024.4
20260502151212 61 313 7.0 0.0 0.00 0.00 0.00 68 1024.4
20260502150712 61 175 7.0 0.0 0.00 0.00 0.00 67 1024.4
20260502150229 61 290 7.0 0.0 0.00 0.00 0.00 68 1024.0
20260502130725 53 290 6.0 0.0 0.00 0.00 0.00 86 1023.4
20260502130225 52 318 6.0 0.0 0.00 0.00 0.00 87 1023.4
20260502123724 50 292 5.0 0.0 0.00 0.00 0.00 90 1022.7
20260502123223 50 252 4.0 0.0 0.00 0.00 0.00 90 1022.7
20260502122725 50 235 3.0 0.0 0.00 0.00 0.00 91 1022.4
20260502122223 50 335 3.0 0.0 0.00 0.00 0.00 91 1022.4
20260502121723 49 238 3.0 0.0 0.00 0.00 0.00 91 1022.4
20260502121225 49 255 4.0 0.0 0.00 0.00 0.00 91 1022.4
20260502120723 49 278 3.0 0.0 0.00 0.00 0.00 91 1022.4
20260502120223 49 279 3.0 0.0 0.00 0.00 0.00 91 1022.0
20260502115725 49 222 2.0 0.0 0.00 0.00 0.00 91 1022.0
20260502115225 49 252 3.0 0.0 0.00 0.00 0.00 90 1022.0
20260502114724 49 272 3.0 0.0 0.00 0.00 0.00 90 1022.0
20260502114223 49 283 4.0 0.0 0.00 0.00 0.00 90 1022.0
20260502113724 50 276 4.0 0.0 0.00 0.00 0.00 90 1022.0
20260502113223 50 275 4.0 0.0 0.00 0.00 0.00 90 1022.0
20260502112722 49 225 3.0 0.0 0.00 0.00 0.00 90 1022.0
20260502112222 50 244 3.0 0.0 0.00 0.00 0.00 90 1022.0
20260502111727 50 268 3.0 0.0 0.00 0.00 0.00 90 1021.7
20260502111223 50 272 4.0 0.0 0.00 0.00 0.00 90 1021.7
20260502110724 50 235 3.0 0.0 0.00 0.00 0.00 90 1021.7
20260502110222 50 252 2.0 0.0 0.00 0.00 0.00 90 1021.7
20260502105723 50 265 3.0 0.0 0.00 0.00 0.00 90 1021.7
20260502105221 50 244 4.0 0.0 0.00 0.00 0.00 90 1021.7
20260502104723 50 275 5.0 0.0 0.00 0.00 0.00 90 1021.7
20260502104223 50 310 5.0 0.0 0.00 0.00 0.00 90 1021.7
20260502103721 50 248 3.0 0.0 0.00 0.00 0.00 90 1021.7
20260502103222 50 247 4.0 0.0 0.00 0.00 0.00 90 1021.7
20260502102723 50 238 4.0 0.0 0.00 0.00 0.00 90 1021.3
20260502102224 50 282 4.0 0.0 0.00 0.00 0.00 89 1021.3
20260502101721 50 258 3.0 0.0 0.00 0.00 0.00 89 1021.7
20260502101222 51 313 6.0 0.0 0.00 0.00 0.00 89 1021.3
20260502100720 51 254 7.0 0.0 0.00 0.00 0.00 89 1021.3
20260502100226 50 281 5.0 0.0 0.00 0.00 0.00 90 1021.0
20260502091220 50 238 1.0 0.0 0.00 0.00 0.00 91 1020.7
20260502090719 50 204 1.0 0.0 0.00 0.00 0.00 91 1020.7
20260502090223 50 255 3.0 0.0 0.00 0.00 0.00 91 1020.7
20260502071218 52 313 5.0 0.0 0.00 0.00 0.00 89 1019.6
20260502070717 52 262 4.0 0.0 0.00 0.00 0.00 89 1020.0
20260502070218 52 268 5.0 0.0 0.00 0.00 0.00 89 1020.0
20260502065719 52 266 5.0 0.0 0.00 0.00 0.00 89 1020.0
20260502065216 52 345 6.0 0.0 0.00 0.00 0.00 89 1020.0
20260502064716 52 272 6.0 0.0 0.00 0.00 0.00 89 1020.0
20260502064215 52 243 6.0 0.0 0.00 0.00 0.00 89 1020.0
20260502063716 52 314 6.0 0.0 0.00 0.00 0.00 89 1020.0
20260502063217 52 297 8.0 0.0 0.00 0.00 0.00 89 1020.0
20260502062715 52 279 9.0 0.0 0.00 0.00 0.00 89 1020.0
20260502062215 52 249 4.0 0.0 0.00 0.00 0.00 89 1020.0
20260502061716 52 297 6.0 0.0 0.00 0.00 0.00 89 1019.6
20260502061221 52 280 4.0 0.0 0.00 0.00 0.00 89 1019.6
20260502060715 52 252 6.0 0.0 0.00 0.00 0.00 88 1020.0
20260502060218 52 263 6.0 0.0 0.00 0.00 0.00 88 1020.0
20260502055717 52 275 6.0 0.0 0.00 0.00 0.00 88 1020.0
20260502055215 52 311 6.0 0.0 0.00 0.00 0.00 89 1020.0
20260502054715 52 254 5.0 0.0 0.00 0.00 0.00 89 1020.0
20260502054214 52 259 7.0 0.0 0.00 0.00 0.00 89 1020.0
20260502053713 52 292 4.0 0.0 0.00 0.00 0.00 89 1020.0
20260502053519 53 297 4.0 0.0 0.00 0.00 0.00 89 1020.0
20260502053016 53 239 3.0 0.0 0.00 0.00 0.00 89 1020.0
20260502052215 53 239 4.0 0.0 0.00 0.00 0.00 89 1019.6
20260502051718 53 319 6.0 0.0 0.00 0.00 0.00 89 1019.3
20260502051218 53 278 6.0 0.0 0.00 0.00 0.00 88 1019.6
20260502050716 53 296 6.0 0.0 0.00 0.00 0.00 88 1019.6
20260502050214 53 287 6.0 0.0 0.00 0.00 0.00 88 1020.0
20260502045716 53 282 6.0 0.0 0.00 0.00 0.29 88 1020.0
20260502045213 53 247 6.0 0.0 0.00 0.00 0.29 88 1020.0
20260502044714 53 297 6.0 0.0 0.00 0.00 0.29 88 1020.0
20260502044213 53 276 6.0 0.0 0.00 0.00 0.29 88 1020.0
20260502043714 53 289 5.0 0.0 0.00 0.00 0.29 88 1020.0
20260502043215 53 284 4.0 0.0 0.00 0.00 0.29 88 1020.0
20260502042714 53 276 6.0 0.0 0.00 0.00 0.29 87 1020.0
20260502042213 53 274 8.0 0.0 0.00 0.00 0.29 87 1019.6
20260502041713 54 262 8.0 0.0 0.00 0.00 0.29 87 1019.6
20260502041214 54 290 7.0 0.0 0.00 0.00 0.29 87 1019.6
20260502040715 54 289 6.0 0.0 0.00 0.00 0.29 86 1019.6
20260502040213 54 275 8.0 0.0 0.00 0.00 0.29 86 1019.6
20260502035714 54 319 8.0 0.0 0.00 0.00 0.29 87 1019.6
20260502035213 54 300 10.0 0.0 0.00 0.00 0.29 87 1019.6
20260502034713 54 278 7.0 0.0 0.00 0.00 0.29 88 1019.6
20260502034213 54 285 7.0 0.0 0.00 0.00 0.29 88 1019.6
20260502033716 54 288 8.0 0.0 0.00 0.00 0.29 88 1019.6
20260502033212 54 2 8.0 0.0 0.00 0.00 0.29 88 1019.3
20260502032715 54 280 9.0 0.0 0.00 0.00 0.29 88 1019.3
20260502032214 54 335 9.0 0.0 0.00 0.00 0.29 88 1019.3
20260502031712 54 326 10.0 0.0 0.00 0.00 0.29 88 1019.3
20260502031214 54 286 7.0 0.0 0.00 0.00 0.29 88 1019.3
20260502030713 54 273 11.0 0.0 0.00 0.00 0.29 88 1019.0
20260502030211 54 260 9.0 0.0 0.00 0.00 0.29 88 1019.0
20260502025712 54 294 7.0 0.0 0.00 0.00 0.29 88 1019.0
20260502025215 54 253 7.0 0.0 0.00 0.00 0.29 88 1019.0
20260502024713 54 294 7.0 0.0 0.00 0.00 0.29 88 1018.6
20260502024212 54 282 8.0 0.0 0.00 0.00 0.29 87 1018.6
20260502023711 54 324 8.0 0.0 0.00 0.00 0.29 88 1018.6
20260502023214 54 291 8.0 0.0 0.00 0.00 0.29 87 1018.6
20260502022714 54 289 10.0 0.0 0.00 0.00 0.29 87 1018.6
20260502022213 54 259 8.0 0.0 0.00 0.00 0.29 87 1018.3
20260502021716 54 356 9.0 0.0 0.00 0.00 0.29 87 1018.3
20260502021217 54 293 8.0 0.0 0.00 0.00 0.29 87 1018.3
20260502020712 54 303 10.0 0.0 0.00 0.00 0.29 87 1017.9
20260502020212 54 286 11.0 0.0 0.00 0.00 0.29 87 1017.9
20260502015712 54 275 9.0 0.0 0.00 0.00 0.29 88 1017.6
20260502015214 55 256 9.0 0.0 0.00 0.00 0.29 88 1017.6
20260502014711 55 288 11.0 0.0 0.00 0.00 0.29 88 1017.6
20260502014213 55 54 9.0 0.0 0.00 0.00 0.29 88 1017.6
20260502013713 55 272 9.0 0.0 0.00 0.00 0.29 87 1017.6
20260502013212 55 280 10.0 0.0 0.00 0.00 0.29 87 1017.6
20260502012713 55 355 13.0 0.0 0.00 0.00 0.29 88 1017.3
20260502012211 56 280 12.0 0.0 0.00 0.00 0.29 90 1017.3
20260502011711 56 276 12.0 0.0 0.00 0.00 0.29 90 1017.3
20260502011212 56 288 11.0 0.0 0.00 0.00 0.29 91 1017.3
20260502010714 56 308 11.0 0.0 0.00 0.00 0.29 91 1017.3
20260502010215 56 304 10.0 0.0 0.00 0.00 0.29 91 1016.9
20260502005712 56 347 9.0 0.0 0.00 0.00 0.29 91 1016.9
20260502005214 56 302 9.0 0.0 0.00 0.00 0.29 91 1016.6
20260502004811 57 293 9.0 0.0 0.00 0.00 0.29 91 1016.6
20260502003714 57 287 8.0 0.0 0.00 0.00 0.29 91 1016.6
20260502003214 57 223 11.0 0.0 0.00 0.00 0.29 91 1016.3
20260502002714 57 276 8.0 0.0 0.00 0.00 0.29 91 1016.3
20260502002212 57 269 9.0 0.0 0.00 0.00 0.29 91 1016.3
20260502001711 57 262 12.0 0.0 0.00 0.00 0.29 91 1016.3
20260502001214 57 265 11.0 0.0 0.00 0.00 0.29 91 1016.3
20260502000713 57 240 13.0 0.0 0.00 0.00 0.29 90 1015.9
20260502000211 58 281 10.0 0.0 0.00 0.00 0.29 91 1015.9
20260501235711 58 310 12.0 0.0 0.00 0.00 0.29 91 1015.9
20260501235212 58 255 10.0 0.0 0.00 0.00 0.29 91 1015.6
20260501234714 58 298 8.0 0.0 0.00 0.00 0.29 92 1015.6
20260501234212 58 303 11.0 0.0 0.00 0.00 0.29 92 1015.2
20260501233715 58 131 8.0 0.0 0.00 0.00 0.29 92 1015.2
20260501233210 58 238 7.0 0.0 0.00 0.00 0.29 92 1015.2
20260501232715 58 289 6.0 0.0 0.00 0.00 0.29 93 1015.2
20260501232213 59 285 6.0 0.0 0.00 0.00 0.29 92 1014.9
20260501231715 58 3 10.0 0.0 0.00 0.00 0.29 92 1015.2
20260501231212 58 245 13.0 0.0 0.00 0.00 0.29 92 1014.9
20260501230714 59 267 8.0 0.0 0.00 0.00 0.29 93 1014.6
20260501230212 59 313 10.0 0.0 0.00 0.00 0.29 93 1014.6
20260501225713 59 257 7.0 0.0 0.00 0.00 0.29 93 1014.6
20260501225211 59 293 9.0 0.0 0.00 0.00 0.29 93 1014.6
20260501224712 59 316 14.0 0.0 0.00 0.00 0.29 93 1014.6
20260501224213 59 315 8.0 0.0 0.00 0.00 0.29 93 1014.6
20260501223711 59 282 9.0 0.0 0.00 0.00 0.29 94 1014.6
20260501223211 59 258 8.0 0.0 0.00 0.00 0.29 94 1014.6
20260501222714 59 319 8.0 0.0 0.00 0.00 0.29 94 1014.9
20260501222214 59 300 8.0 0.0 0.00 0.00 0.29 94 1014.9
20260501221712 59 0 11.0 0.0 0.00 0.00 0.29 94 1014.9
20260501221214 59 321 9.0 0.0 0.00 0.00 0.29 94 1014.9
20260501220710 59 263 10.0 0.0 0.00 0.00 0.29 94 1014.9
20260501220213 59 296 9.0 0.0 0.00 0.00 0.29 95 1014.6
20260501215711 59 292 10.0 0.0 0.00 0.00 0.29 94 1014.6
20260501215216 59 271 11.0 0.0 0.00 0.00 0.29 95 1014.6
20260501214713 59 287 7.0 0.0 0.00 0.00 0.29 95 1014.6
20260501214213 59 302 11.0 0.0 0.00 0.00 0.29 95 1014.6
20260501213715 59 279 10.0 0.0 0.00 0.00 0.28 95 1014.6
20260501213213 59 30 13.0 0.0 0.00 0.00 0.28 95 1014.2
20260501212717 59 284 9.0 0.0 0.00 0.00 0.28 96 1014.2
20260501212215 59 293 9.0 0.0 0.00 0.00 0.28 95 1013.9
20260501211714 59 303 10.0 0.0 0.00 0.00 0.28 96 1013.9
20260501211215 59 240 7.0 0.0 0.00 0.00 0.28 96 1013.9
20260501210711 59 314 13.0 0.0 0.00 0.00 0.27 95 1014.2
20260501210212 60 247 7.0 0.0 0.00 0.00 0.26 95 1014.2
20260501205717 60 272 7.0 0.0 0.00 0.00 0.25 95 1014.2
20260501205219 60 280 9.0 0.0 0.00 0.00 0.25 96 1014.6
20260501204712 60 284 8.0 0.0 0.00 0.00 0.25 95 1014.6
20260501204212 61 270 9.0 0.0 0.00 0.00 0.25 95 1014.6
20260501203713 61 255 8.0 0.0 0.00 0.00 0.25 95 1014.2
20260501203214 61 246 8.0 0.0 0.00 0.00 0.25 95 1014.2
20260501202714 61 293 9.0 0.0 0.00 0.00 0.25 96 1014.2
20260501202214 61 301 6.0 0.0 0.00 0.00 0.25 96 1014.6
20260501201716 61 317 7.0 0.0 0.00 0.00 0.25 95 1014.2
20260501201214 61 300 6.0 0.0 0.00 0.00 0.24 95 1014.2
20260501200714 61 265 6.0 0.0 0.00 0.00 0.24 95 1013.9
20260501200211 61 253 6.0 0.0 0.00 0.00 0.24 94 1014.2
20260501195712 61 195 7.0 0.0 0.00 0.00 0.22 94 1013.9
20260501195213 61 298 8.0 0.0 0.00 0.00 0.21 94 1013.9
20260501194713 62 342 6.0 0.0 0.00 0.00 0.21 93 1013.5
20260501194213 62 269 7.0 0.0 0.00 0.00 0.21 93 1013.2
20260501193714 62 241 7.0 0.0 0.00 0.00 0.21 94 1012.9
20260501193221 62 268 9.0 0.0 0.00 0.00 0.21 93 1012.5
20260501192712 62 331 5.0 0.0 0.00 0.00 0.21 94 1012.9
20260501192211 62 224 7.0 0.0 0.00 0.00 0.21 94 1012.9
20260501191718 62 269 5.0 0.0 0.00 0.00 0.21 94 1012.9